GFSNW_850_temp_156.txt.gz
Temp
0 1 2 2 2 2 2 2 1 4 3 3 4 4 6 8 8 9 9 9 9 9 9 9 11 11 13 13 13 12 12 8 9 12 14 13 13 12 11 8 10 6 5 4
-0 0 1 1 2 2 2 1 1 3 2 3 3 5 6 6 7 8 8 9 9 10 9 9 9 10 13 13 13 11 11 9 7 8 11 13 12 13 12 9 6 7 5 4
-0 -0 0 1 1 1 2 0 1 2 2 3 4 5 5 5 6 6 7 7 8 7 7 9 7 9 11 10 11 12 11 9 9 9 9 10 10 11 11 8 4 6 5 7
-1 -1 -0 1 1 1 1 -0 0 1 2 2 3 3 5 5 5 6 7 7 7 7 6 7 8 9 10 10 10 10 10 8 10 9 10 10 10 10 10 10 9 7 6 8
-1 -1 -1 -0 0 0 1 1 0 1 1 2 2 3 4 4 5 5 6 5 7 7 7 7 6 8 7 7 9 9 8 6 7 6 9 9 9 6 8 8 9 8 8 7
-1 -1 -1 -1 -0 -1 0 1 1 0 1 1 2 2 4 4 4 5 6 6 5 5 6 6 4 4 6 6 7 7 7 6 6 8 9 9 7 2 6 9 9 9 7 8
-2 -2 -1 -1 -1 -1 -1 -0 -0 0 1 2 2 4 4 4 4 4 5 6 6 5 5 4 4 3 5 7 8 9 6 6 6 6 7 5 7 9 10 9 10 10 10 7
-2 -2 -2 -1 -1 -1 -1 -1 -1 -0 1 2 3 3 4 4 4 4 4 5 5 4 3 3 4 3 4 7 8 7 7 6 5 6 6 6 7 9 10 9 8 9 7 6
-3 -2 -2 -2 -2 -1 -2 -1 -1 -0 -0 1 3 4 4 3 2 3 3 4 4 4 3 3 4 4 4 6 7 8 7 7 6 4 5 4 6 10 11 10 5 8 7 6
-3 -3 -3 -2 -2 -2 -2 -2 -1 -2 -1 1 2 3 3 4 2 2 2 3 2 3 2 3 3 3 6 6 6 6 5 5 5 4 4 4 7 9 10 6 6 8 8 8
-3 -3 -3 -3 -2 -2 -2 -2 -2 -2 -1 -1 1 1 3 3 2 1 2 2 2 2 2 2 2 4 5 5 7 7 6 5 3 3 3 3 8 8 7 7 8 9 8 8
-3 -3 -3 -3 -3 -2 -2 -2 -2 -1 -2 -1 0 1 3 3 6 4 2 3 3 2 2 2 4 4 4 5 4 7 6 5 4 5 4 6 8 8 9 8 8 8 8 8
-3 -3 -3 -3 -3 -3 -3 -2 -2 -1 -2 -1 -1 1 2 2 5 6 3 2 3 5 6 1 1 4 4 4 3 5 6 7 4 5 6 6 8 9 9 9 8 8 8 7
-3 -3 -3 -3 -3 -3 -3 -3 -2 -2 -1 -0 0 2 0 4 5 5 5 5 5 5 6 3 -0 2 4 2 3 4 4 5 5 3 6 7 7 8 8 7 7 7 7 7
-3 -3 -3 -3 -3 -4 -3 -2 -2 -2 -1 -0 -0 0 3 4 4 5 5 5 5 5 3 1 0 3 3 1 2 2 5 4 2 2 6 6 7 8 8 8 8 8 7 7
-3 -3 -4 -4 -4 -4 -4 -2 -2 -2 -1 -1 0 1 2 3 4 4 4 4 4 4 4 1 3 4 4 -1 -1 3 7 7 7 5 7 7 7 7 7 7 7 8 7 7
-3 -4 -4 -4 -3 -4 -3 -1 -0 1 -1 -1 -1 -1 2 3 3 3 3 3 3 3 3 2 2 3 3 -3 1 4 6 6 6 6 6 5 6 6 7 7 7 7 6 6
-4 -4 -3 -3 -4 -3 -3 -1 -0 0 -1 0 -2 -1 1 2 2 2 2 3 3 2 2 2 1 2 2 -1 2 5 5 5 5 6 6 5 6 6 6 6 7 6 6 6
-4 -3 -3 -3 -3 -2 -1 -1 -0 -0 0 1 -1 -2 -2 2 2 2 2 2 -3 1 -3 -1 1 -1 -0 1 3 4 5 5 5 6 6 6 6 6 6 6 6 6 6 5
-3 -3 -2 -3 -2 -2 -0 -1 -2 -1 2 3 -1 1 -2 2 1 -1 0 0 -2 -2 -1 2 -3 -1 4 4 4 4 5 5 5 5 5 5 5 6 6 6 7 7 6 4
-2 -2 -2 -2 -2 -2 -2 -2 -2 -2 -3 1 2 2 -0 2 -2 -3 1 -3 -3 -1 -1 -1 -1 -1 1 6 5 6 4 4 4 4 4 5 5 6 6 6 6 6 5 4
-1 -1 -1 -1 -2 -1 -2 -4 -2 -2 -0 0 -0 2 3 3 3 -1 -2 -1 -2 -1 -1 -3 -2 -1 4 5 4 4 4 4 6 5 4 5 5 6 6 6 6 5 5 3
1 2 0 0 -2 -4 -3 -5 -2 -5 -1 1 2 -1 3 2 3 -2 -3 -2 -3 -2 -5 -2 -1 4 3 4 5 5 5 4 4 3 4 5 5 6 6 6 5 5 3 2
1 -1 -5 -5 -6 -3 -3 -2 -1 1 2 2 3 1 0 1 -2 -6 -4 -3 -2 -3 -4 0 -2 3 2 1 2 4 5 3 2 2 3 4 4 5 6 5 5 4 2 1
0 -0 -6 -5 -2 -1 1 1 2 1 2 3 1 0 1 -3 -3 -3 -2 -1 -3 -1 -1 -2 0 1 1 1 1 2 1 0 1 1 2 2 3 3 3 3 3 2 1 -0
0 -0 -3 -2 -4 -6 0 0 1 1 1 1 1 -4 -4 -4 -3 -1 -3 -0 -1 -2 -4 -0 0 1 1 0 -1 -1 -2 -2 -1 -0 0 1 1 1 1 -1 -1 -1 -1 -2
-1 -4 -1 -1 -1 -2 -1 0 1 1 1 -5 -2 -2 -0 -1 -0 -0 -2 -4 -4 -1 -1 -1 -0 -1 -1 -2 -3 -3 -3 -2 -3 -2 -2 -1 -1 -1 -1 -2 -2 -3 -3 -3

GFSNW_850_temp_159.txt.gz
Temp
0 1 1 2 2 2 2 2 1 3 3 2 2 3 5 6 7 8 8 8 8 8 8 8 9 9 10 12 13 11 10 9 9 11 12 12 12 11 11 7 9 6 3 5
-0 -0 0 1 1 2 2 1 1 2 2 2 2 4 5 6 6 7 7 7 8 8 7 7 8 8 11 12 12 11 11 9 8 9 11 12 12 12 11 8 6 8 6 5
-0 -0 -0 0 1 1 2 1 1 1 2 2 2 3 4 4 6 6 6 6 6 6 6 7 7 7 10 10 11 11 12 9 8 9 10 9 9 10 10 9 6 8 5 8
-0 -0 -0 -0 0 1 1 0 -0 1 1 1 2 3 4 4 5 6 6 5 5 6 5 6 7 8 9 10 10 9 8 5 6 7 9 10 10 9 9 8 8 8 6 7
-1 -1 -1 -1 -0 -0 -0 0 0 -0 0 2 2 2 2 3 3 5 4 4 5 4 5 6 6 8 7 7 8 8 7 4 5 6 8 8 8 6 7 8 8 8 8 7
-1 -1 -1 -1 -1 -1 -1 -0 0 1 1 1 1 3 3 3 4 4 5 5 4 4 5 6 6 6 6 5 4 5 5 3 4 5 7 8 6 2 6 8 8 8 7 8
-1 -1 -1 -2 -1 -1 -1 -1 -0 -0 1 1 1 3 3 3 3 3 5 5 4 6 6 4 4 3 4 4 4 3 3 3 4 5 5 5 6 7 9 9 10 9 9 6
-2 -2 -2 -2 -2 -1 -2 -2 -2 -1 0 1 2 2 3 3 3 3 4 4 5 5 5 4 4 4 3 3 4 4 5 4 4 4 6 7 7 8 8 8 8 8 8 6
-2 -2 -2 -2 -2 -2 -2 -2 -2 -2 -1 0 1 1 1 1 2 2 3 4 4 4 4 3 3 5 4 4 4 5 4 5 5 4 5 4 6 9 10 8 6 8 7 5
-3 -3 -3 -3 -2 -2 -2 -3 -2 -2 -2 -1 1 1 1 2 2 2 2 3 3 4 3 3 3 3 4 4 5 4 3 3 4 4 4 5 6 8 10 6 5 6 7 6
-3 -3 -3 -3 -3 -2 -2 -3 -2 -2 -2 -2 -0 -0 0 0 2 2 2 2 2 2 2 3 3 2 4 3 4 6 6 5 3 3 4 3 7 8 6 6 7 8 7 7
-3 -3 -3 -3 -3 -3 -3 -3 -2 -2 -2 -2 -1 1 1 0 1 1 1 2 1 1 2 1 2 2 4 4 3 6 3 5 4 4 3 5 8 8 9 8 7 7 8 8
-3 -3 -3 -3 -3 -3 -3 -3 -3 -3 -3 -2 -2 -1 1 1 1 1 1 1 4 3 4 2 1 2 3 3 3 4 5 6 3 4 5 5 8 8 9 9 9 8 8 8
-3 -3 -3 -3 -3 -3 -3 -3 -3 -3 -2 -3 -1 1 1 3 2 2 2 2 4 4 4 2 -0 1 3 2 4 3 3 4 4 3 5 6 7 7 8 8 8 8 8 8
-3 -3 -3 -3 -3 -3 -3 -3 -3 -3 -3 -1 -1 0 1 0 1 1 2 2 4 4 2 -0 0 1 2 1 1 2 4 4 2 2 5 6 6 7 7 7 7 7 7 7
-3 -3 -3 -3 -3 -4 -4 -4 -3 -3 -3 -2 -1 -0 1 2 0 1 4 5 4 4 3 1 2 4 3 -2 -1 2 6 6 6 5 7 7 7 7 6 6 7 7 7 7
-4 -3 -3 -3 -4 -4 -4 -3 -2 -1 -3 -2 -1 -1 -0 1 1 3 3 4 3 3 2 1 1 2 3 -4 -0 3 6 6 6 5 5 5 6 6 6 6 6 7 6 7
-4 -4 -4 -4 -4 -4 -4 -2 -2 -2 -3 -2 -1 -0 0 0 1 1 2 2 2 2 2 1 -0 1 0 -2 0 5 5 5 4 5 5 5 5 5 5 5 6 6 6 6
-4 -4 -4 -4 -4 -5 -4 -3 -2 -3 -2 -1 -1 -1 -1 2 1 1 1 2 -4 -0 -4 -1 -0 -2 -1 0 2 3 5 4 5 5 5 5 5 5 5 5 6 5 6 6
-5 -5 -4 -4 -4 -3 -3 -2 -2 -2 -1 -1 -1 0 -0 1 -0 -2 -1 -1 -3 -2 -1 0 -3 -2 2 4 4 4 4 4 4 4 4 4 5 5 5 5 5 6 6 6
-4 -4 -3 -3 -3 -2 -3 -3 -3 -3 -3 -1 0 0 -1 1 -2 -3 -1 -4 -4 -2 -1 -1 -2 -1 -0 5 5 6 5 4 4 4 4 3 3 3 4 4 5 5 6 6
-3 -3 -3 -3 -3 -3 -3 -3 -2 -2 0 -1 -1 1 2 1 2 -2 -2 -1 -3 -1 -2 -4 -3 -2 5 4 5 5 3 3 3 3 3 4 4 4 4 4 5 5 5 6
-3 -2 -3 -3 -4 -3 -2 -5 -2 -5 -3 -0 1 -3 2 2 2 -3 -4 -3 -4 -3 -6 -3 -2 2 4 3 3 3 3 2 2 4 4 5 5 4 4 5 5 5 4 5
-1 -2 -4 -4 -4 -2 -2 -1 -2 -1 0 1 2 -2 -1 0 -4 -7 -4 -4 -3 -4 -5 -1 -3 3 3 3 2 2 3 3 3 4 4 3 3 3 4 5 5 5 4 4
0 -1 -5 -4 -3 -3 -1 -1 1 0 1 2 0 -1 0 -4 -4 -3 -3 -3 -4 -2 -3 -4 -1 0 0 0 1 2 2 1 1 1 1 1 2 2 2 3 2 2 2 2
-0 -1 -4 -3 -6 -7 -0 0 0 1 2 2 2 -5 -4 -4 -4 -2 -4 -1 -2 -4 -6 -1 -1 -1 -0 0 0 1 -2 -3 -3 -2 -1 -0 0 1 1 1 0 0 1 1
-1 -4 -2 -2 -3 -2 -1 -0 0 0 1 -5 -3 -3 -2 -3 -3 -2 -2 -5 -5 -1 1 2 2 2 1 1 1 -0 -2 -3 -3 -3 -3 -2 -1 -0 -1 -1 -1 -1 -2 -2

GFSNW_850_temp_162.txt.gz
Temp
-1 -0 1 1 2 2 2 2 2 2 4 1 1 2 4 6 7 7 7 7 7 7 7 7 8 8 10 11 10 7 9 9 8 10 11 11 11 10 9 8 8 5 4 5
-1 -1 -0 0 1 1 1 1 2 2 1 2 2 2 4 5 5 6 6 6 7 7 6 6 7 8 10 11 9 6 8 7 7 8 10 11 11 11 10 8 6 6 6 5
-1 -1 -1 -1 0 1 1 1 1 1 1 1 2 2 3 3 5 5 6 5 6 6 6 7 6 7 8 8 9 9 8 5 6 6 7 8 9 10 9 9 6 5 6 7
-1 -1 -1 -1 -0 0 1 0 0 1 1 1 1 2 3 3 3 5 6 5 5 5 4 5 5 7 6 8 9 9 6 5 5 5 6 7 7 8 9 9 9 9 9 7
-1 -1 -1 -1 -1 -1 -0 -1 -0 -1 1 1 1 2 2 2 3 4 4 4 4 3 4 4 4 6 6 6 7 8 7 5 6 6 7 7 7 7 6 8 8 8 8 6
-1 -1 -1 -2 -1 -1 -1 -1 -0 0 1 1 1 2 3 3 3 3 4 4 3 3 4 5 5 5 6 6 6 5 4 3 5 6 7 7 5 5 6 7 8 8 7 7
-2 -1 -1 -1 -2 -1 -2 -1 -1 -0 0 1 1 2 2 3 3 2 4 4 3 5 5 5 4 3 3 3 4 5 5 4 4 5 5 5 6 7 7 8 8 8 8 6
-2 -2 -2 -2 -2 -2 -2 -2 -2 -1 -1 0 1 1 2 2 1 0 2 3 4 5 4 3 3 2 4 4 4 4 4 4 4 5 5 6 7 7 7 8 8 7 7 6
-2 -2 -2 -2 -2 -2 -2 -2 -3 -2 -2 -1 0 0 1 2 2 2 2 3 4 4 2 2 3 3 4 4 4 4 4 4 4 4 4 4 6 8 9 8 6 8 7 5
-2 -2 -2 -2 -2 -2 -2 -3 -3 -3 -2 -2 -1 -1 0 1 1 1 2 2 2 3 2 3 3 4 5 3 4 3 4 4 4 4 4 5 5 8 9 6 6 7 7 5
-3 -3 -3 -2 -2 -2 -3 -3 -3 -3 -2 -2 -2 -1 -0 1 0 1 1 2 2 2 3 3 2 2 3 3 4 5 4 4 4 4 4 4 6 7 7 6 7 8 7 7
-3 -3 -3 -3 -3 -3 -3 -3 -4 -3 -3 -2 -2 -2 -1 -0 -0 -0 -0 0 1 1 2 1 2 2 1 3 2 5 4 3 3 4 4 5 7 8 9 9 9 8 8 8
-3 -3 -3 -3 -3 -3 -3 -3 -3 -3 -3 -3 -3 -3 -0 -0 -0 1 0 1 1 0 2 1 1 1 1 2 2 4 4 5 2 3 5 5 8 8 8 9 9 9 8 7
-3 -3 -3 -3 -3 -3 -3 -3 -3 -3 -3 -3 -2 -0 0 1 1 1 1 0 1 1 1 -0 -1 1 3 1 2 2 3 4 4 3 3 5 7 7 8 8 8 8 8 8
-4 -3 -3 -3 -3 -3 -3 -3 -3 -3 -3 -3 -2 -2 -0 0 -0 1 0 1 -0 1 0 -0 -1 1 1 0 1 1 3 4 2 2 5 4 5 7 7 7 8 7 7 7
-3 -3 -3 -3 -3 -3 -4 -4 -3 -3 -3 -3 -4 -1 -1 -1 -1 -1 -1 -1 -0 1 -0 -0 2 3 2 -1 -1 2 5 6 6 4 7 6 7 6 6 7 7 7 7 7
-3 -3 -3 -3 -4 -4 -4 -4 -3 -3 -3 -3 -3 -3 -0 -0 -0 -0 -0 -0 0 -0 -0 0 1 2 2 -3 -0 3 6 6 6 5 5 4 5 6 6 6 6 6 6 6
-3 -4 -3 -4 -4 -4 -4 -3 -3 -3 -4 -3 -2 -2 -0 -1 -1 -1 -0 -1 -0 1 0 0 -0 1 -1 -1 0 4 5 4 4 5 5 4 5 5 5 6 5 5 5 6
-4 -4 -4 -4 -4 -4 -4 -3 -3 -3 -4 -3 -2 -1 0 -1 -1 -0 1 2 -1 -1 -3 -1 -1 -2 -1 1 1 3 4 3 4 5 5 4 4 4 4 4 4 4 5 5
-4 -4 -4 -4 -4 -3 -3 -3 -3 -3 -3 -3 -2 -1 -0 -1 -1 -2 -1 -2 -2 -1 -1 -1 -3 -2 2 3 4 4 4 4 3 3 3 4 4 4 4 5 5 4 5 5
-5 -4 -4 -4 -3 -3 -2 -3 -3 -2 -3 -2 -1 -1 -0 -1 -0 -2 -2 -3 -3 -2 -2 -2 -2 -2 -1 5 5 5 5 4 3 3 2 2 2 3 3 4 4 4 4 4
-4 -3 -4 -4 -3 -3 -3 -3 -3 -3 -1 -2 -2 -1 -0 -1 1 -2 -3 -2 -4 -2 -3 -5 -4 -2 4 3 4 4 4 3 3 3 2 2 2 3 2 3 3 4 4 4
-4 -3 -3 -3 -4 -3 -3 -4 -2 -6 -3 -2 -1 -1 1 1 1 -4 -4 -5 -4 -3 -7 -3 -2 1 3 3 3 2 2 2 2 2 2 1 1 2 2 3 3 3 4 4
-3 -3 -4 -4 -5 -4 -4 -3 -3 -1 -1 -0 1 -2 -1 -1 -4 -7 -4 -4 -3 -4 -4 -1 -3 1 2 1 2 2 1 1 1 2 2 1 1 2 2 2 3 4 4 4
-3 -3 -4 -3 -3 -3 -3 -3 -2 -2 -1 1 -1 -2 -1 -5 -5 -4 -3 -3 -3 -3 -3 -4 0 0 0 0 1 2 2 2 1 -2 1 -0 0 1 1 2 2 2 1 1
-2 -2 -5 -3 -5 -6 -1 -1 -1 -0 1 2 1 -5 -5 -4 -4 -3 -4 -2 -3 -4 -5 2 1 1 2 2 2 1 1 -0 -2 -3 -3 -2 -2 -1 -0 -1 -0 0 -0 -2
-2 -5 -3 -3 -4 -3 -2 -1 -0 0 1 -5 -3 -4 -2 -3 -4 -3 -3 -5 -6 -1 2 3 2 2 2 1 1 1 -0 -1 -2 -3 -3 -4 -3 -1 -1 -1 -1 -1 -2 -2

GFSNW_850_temp_165.txt.gz
Temp
-0 -0 -0 0 1 2 2 2 2 2 3 1 0 3 4 5 6 6 7 7 7 6 7 6 5 8 9 10 10 9 8 6 8 10 13 12 12 13 12 11 11 9 10 11
-1 -1 -1 -1 0 1 1 2 2 2 2 3 2 2 4 4 5 6 6 6 7 7 6 6 7 8 9 9 10 9 7 5 7 10 10 11 11 11 12 11 9 10 9 10
-2 -2 -2 -1 -1 0 1 1 1 1 1 1 3 3 3 3 4 5 5 6 6 6 6 7 7 7 8 8 8 7 5 5 6 8 9 8 8 8 9 9 9 11 10 12
-2 -2 -2 -2 -1 -1 0 0 1 1 1 1 1 3 3 4 3 5 5 5 5 5 5 5 5 6 7 7 7 8 6 5 6 6 6 6 7 7 8 8 9 9 9 10
-2 -2 -2 -2 -2 -1 -1 -0 -0 -0 1 1 1 1 1 3 3 4 4 4 5 4 4 5 5 5 5 5 6 7 7 5 5 5 7 7 6 7 8 9 9 8 10 11
-2 -2 -2 -2 -1 -1 -1 -1 -0 -0 0 1 1 2 2 2 3 2 4 5 4 3 5 5 5 5 5 5 5 5 5 5 5 4 7 7 6 6 7 8 10 9 9 11
-2 -2 -2 -2 -1 -1 -1 -2 -1 -1 0 1 1 1 1 1 2 2 3 3 3 3 4 4 4 3 3 4 5 5 5 5 5 5 6 5 9 8 8 8 9 10 9 9
-2 -2 -2 -2 -2 -2 -2 -2 -2 -1 -0 0 1 1 2 2 2 3 1 1 3 3 3 3 2 3 3 4 4 5 5 5 4 5 6 7 8 8 7 7 8 9 9 10
-2 -2 -2 -2 -2 -2 -2 -2 -2 -2 -2 -1 -0 0 1 -0 1 2 2 2 3 3 2 3 3 3 5 6 5 4 5 4 3 5 5 6 9 9 9 9 8 9 10 9
-2 -2 -2 -2 -2 -2 -2 -3 -3 -3 -3 -2 -1 -1 0 0 0 1 0 1 2 3 2 2 4 4 4 4 5 4 4 4 4 4 4 6 8 8 8 7 8 7 8 7
-2 -2 -2 -3 -3 -2 -2 -3 -3 -3 -3 -2 -2 -2 -1 -0 0 -1 -1 -0 2 2 2 3 3 4 4 4 5 5 6 5 5 4 5 5 6 7 6 8 7 8 8 7
-2 -2 -2 -3 -3 -2 -3 -3 -3 -4 -3 -3 -2 -2 -2 -1 -1 -1 -0 1 0 0 1 1 2 3 2 3 3 5 4 6 6 5 5 5 5 5 6 8 9 9 8 8
-2 -2 -2 -3 -3 -3 -3 -4 -4 -4 -4 -4 -4 -3 -1 -1 -1 -0 -1 -0 0 0 0 0 1 2 3 3 3 4 5 5 4 4 5 4 4 6 6 6 9 9 9 7
-3 -3 -3 -3 -3 -3 -3 -4 -4 -4 -3 -4 -2 -1 -1 0 -0 -1 -1 -1 0 1 0 -0 1 2 2 3 4 4 5 5 5 4 5 4 4 4 5 6 7 8 8 7
-3 -3 -3 -3 -4 -3 -3 -3 -3 -3 -4 -4 -3 -3 -1 -1 -1 -1 -0 -2 -2 -1 -0 -0 1 0 1 2 2 3 4 5 4 5 5 5 6 7 6 6 7 7 7 6
-3 -3 -3 -4 -3 -3 -4 -4 -4 -3 -4 -4 -3 -1 -1 -1 -0 -0 -1 -2 -2 -1 -0 1 1 2 1 1 2 4 5 5 5 5 5 4 5 6 6 6 7 6 6 7
-3 -3 -4 -3 -3 -4 -4 -3 -4 -3 -4 -3 -3 -3 -0 -0 -1 -1 -1 -2 -2 -1 -0 -0 1 0 0 1 3 5 5 6 6 5 4 4 5 5 6 6 6 6 6 6
-4 -4 -3 -3 -4 -4 -4 -3 -4 -4 -4 -4 -3 -3 -2 -1 -1 -1 -1 -1 -1 -1 0 -1 0 -0 -0 2 3 4 4 4 4 5 4 4 4 4 5 5 5 5 5 5
-5 -4 -4 -4 -4 -5 -5 -3 -3 -4 -4 -3 -4 -2 -2 -2 -1 -1 -1 -1 -0 -2 0 1 -0 0 1 3 2 3 4 4 4 4 4 3 4 4 4 4 4 4 5 5
-5 -4 -4 -4 -4 -3 -4 -4 -4 -4 -4 -4 -3 -1 -1 -1 -1 -1 -1 -2 -1 0 -0 -2 0 1 1 3 3 4 4 4 3 2 2 3 3 3 3 3 3 3 4 4
-4 -4 -3 -4 -4 -4 -3 -5 -4 -5 -3 -3 -2 -1 -1 -2 -1 -1 -2 -1 -1 0 0 1 -0 0 1 3 4 3 3 3 3 2 1 1 2 1 2 3 3 2 2 3
-3 -3 -4 -4 -4 -5 -4 -4 -3 -3 -1 -2 -1 -1 -0 -1 -1 -1 -2 -1 -2 -0 -2 -1 -1 1 2 3 3 3 3 2 2 2 2 2 2 2 1 2 2 2 2 3
-3 -4 -4 -4 -3 -3 -4 -4 -2 -3 -2 -2 -2 -1 -0 -1 -2 -3 -2 -2 -2 -2 -2 -1 0 1 2 3 3 2 2 1 1 2 2 1 1 3 2 2 2 2 2 3
-3 -3 -3 -3 -4 -3 -3 -2 -2 -2 -2 -2 -1 -2 -0 -1 -2 -4 -1 -3 -2 -2 -2 -0 0 1 2 2 1 1 1 1 1 1 2 1 1 3 2 1 1 1 2 3
-3 -4 -5 -4 -3 -3 -3 -3 -3 -2 -2 -1 -1 -1 -1 -2 -3 -3 -2 -2 -3 -2 -0 -1 1 2 2 1 1 0 1 1 -0 -1 -1 -2 -3 -2 -1 -0 -0 0 0 1
-3 -4 -5 -4 -4 -4 -3 -4 -3 -2 -1 -1 0 -3 -2 -2 -2 -2 -2 -1 -2 -1 -1 2 2 3 2 2 2 1 1 -0 -1 -1 -3 -4 -3 -3 -2 -1 -0 -0 -1 -1
-3 -5 -5 -5 -5 -4 -3 -3 -2 -1 -1 -1 -1 -2 -2 -2 -2 -2 -2 -2 -2 -1 2 2 2 2 2 2 1 1 0 -0 -1 -2 -3 -3 -4 -3 -2 -2 -2 -1 -1 -2

GFSNW_850_temp_171.txt.gz
Temp
0 0 1 1 1 1 1 1 2 2 3 2 -0 3 7 10 11 9 9 8 6 6 6 7 8 10 10 8 9 11 12 10 11 14 17 17 16 15 16 13 13 14 14 14
-0 -0 0 0 0 1 2 2 2 2 2 3 2 4 5 8 8 9 9 9 10 9 6 6 8 10 11 7 9 8 8 8 10 13 15 16 14 15 16 15 14 10 10 12
-1 -1 -0 -0 -0 0 0 1 2 2 1 2 4 4 4 3 5 7 8 9 10 9 9 9 6 9 10 9 9 7 6 7 8 9 12 10 7 9 11 9 9 11 12 13
-1 -1 -1 -1 -1 -1 -1 0 1 2 3 2 2 6 5 5 5 7 7 8 8 8 7 8 8 9 10 11 10 8 7 5 7 8 10 10 10 11 11 11 11 9 10 11
-1 -1 -1 -1 -1 -1 -1 -0 1 2 4 6 4 2 3 6 8 8 6 7 9 8 8 8 9 10 11 10 11 10 10 6 7 7 9 10 10 11 11 12 12 12 12 12
-2 -1 -1 -1 -1 -1 -0 1 -0 0 4 5 4 4 5 5 5 5 4 6 7 8 9 9 7 8 9 10 9 9 9 8 8 7 10 11 9 9 11 12 13 13 12 14
-2 -2 -1 -1 -1 -1 0 1 0 1 2 3 5 4 5 3 4 3 1 2 2 4 4 6 7 7 8 8 9 10 8 7 7 7 8 6 10 13 13 13 14 15 15 15
-2 -2 -2 -1 -1 -1 -1 1 -0 0 2 4 2 2 1 2 4 1 2 3 4 3 3 4 4 7 7 9 9 10 10 9 7 6 7 9 11 13 13 13 13 15 14 14
-2 -2 -2 -2 -1 -1 -2 -0 0 1 2 3 4 1 1 2 3 3 3 3 3 4 5 3 3 6 7 8 9 11 11 10 7 7 6 7 11 13 7 10 10 13 12 13
-2 -2 -2 -2 -2 -2 -2 -1 -1 0 1 2 3 4 4 4 4 4 5 2 3 1 2 3 5 6 8 7 8 9 8 8 6 6 6 6 9 11 10 8 9 10 10 11
-2 -2 -2 -2 -2 -2 -2 -1 -1 -0 0 2 1 2 2 3 3 3 3 3 2 1 1 1 3 5 5 6 8 9 10 8 8 7 6 6 9 10 8 8 9 8 8 8
-2 -2 -2 -2 -2 -3 -2 -1 -1 -1 -0 1 -0 1 1 1 2 3 3 4 4 3 2 1 1 1 3 4 5 5 7 9 9 7 7 6 4 8 8 7 6 7 6 5
-2 -2 -2 -2 -2 -2 -3 -3 -2 -2 -2 -1 -0 0 0 -0 -0 1 2 3 3 3 3 3 2 2 5 4 5 4 8 11 8 8 10 10 10 9 7 6 4 4 4 6
-2 -2 -2 -2 -2 -2 -3 -3 -2 -2 -1 -0 2 1 0 0 0 0 0 1 2 2 2 2 2 3 5 5 5 4 4 5 8 9 9 10 9 8 8 6 5 5 5 5
-2 -2 -2 -2 -2 -3 -3 -3 -3 -2 -1 0 1 1 1 0 0 0 0 0 0 1 1 1 2 4 4 4 5 5 7 8 7 7 9 9 9 8 8 8 7 6 6 7
-2 -2 -2 -2 -2 -2 -3 -3 -3 -2 -1 -2 0 2 2 1 1 0 1 1 1 1 1 2 2 3 4 3 5 8 8 8 8 9 9 8 8 7 7 8 8 8 8 7
-2 -2 -3 -2 -2 -2 -3 -2 -2 -3 -3 -2 0 2 2 1 1 2 1 1 1 0 1 1 2 4 3 3 4 6 6 7 8 8 8 8 7 8 8 8 8 7 7 7
-3 -3 -3 -2 -2 -3 -3 -2 -2 -3 -3 -2 -0 2 2 2 1 1 2 1 1 0 1 2 3 4 4 3 6 6 6 7 7 7 7 7 7 7 7 7 7 7 7 7
-3 -3 -3 -3 -3 -3 -3 -3 -3 -3 -3 -2 -1 1 1 2 2 1 0 1 -0 1 2 3 3 4 3 5 6 6 6 8 7 7 7 7 7 7 7 7 7 7 7 6
-3 -3 -3 -4 -3 -3 -3 -4 -4 -4 -3 -3 -0 1 1 1 0 -1 1 -1 1 1 3 4 3 5 6 6 7 7 7 6 6 6 7 7 8 7 6 6 6 5 5 4
-3 -3 -3 -3 -3 -3 -3 -3 -2 -1 -1 -0 1 1 2 2 1 1 0 1 2 3 4 4 4 4 6 6 6 7 6 6 6 6 6 5 5 4 4 3 3 2 1 1
-2 -2 -3 -3 -3 -2 -2 -1 -0 -0 1 3 2 1 1 1 -0 -1 -0 1 1 2 4 3 4 7 7 7 6 6 6 5 5 4 4 3 3 2 1 1 0 0 1 1
-2 -2 -3 -2 -2 -2 -2 -1 0 1 2 1 0 0 -1 0 -1 -1 1 0 1 4 2 3 6 7 5 5 5 5 4 3 3 3 2 1 1 1 2 1 1 1 -0 0
-1 -2 -2 -1 -1 -0 1 1 1 1 1 1 1 0 0 -1 -0 1 1 2 2 1 2 4 6 5 5 5 4 4 2 3 2 2 2 2 1 1 1 1 0 -0 -1 -1
-1 -1 -1 -1 0 -1 -1 -2 -2 -1 -0 0 -0 0 -1 1 1 2 3 1 2 3 4 5 5 4 4 3 2 2 1 2 1 1 1 1 1 0 -0 -1 -1 -2 -2 -1
-1 -1 -1 0 -1 -1 -1 -1 -1 -1 -1 -1 0 1 2 2 2 3 3 4 4 5 5 4 3 2 2 3 3 2 2 2 2 1 0 1 -0 -2 -2 -2 -2 -2 -2 -2
-1 0 -0 -1 -0 -0 -0 -0 0 -0 -1 1 2 2 3 3 3 3 5 4 5 5 4 3 3 2 3 3 3 2 2 2 1 0 0 -0 -2 -3 -3 -3 -3 -4 -3 -2

GFSNW_850_temp_174.txt.gz
Temp
1 1 1 1 1 1 1 1 1 3 2 3 -0 3 5 9 10 9 8 9 7 7 6 7 8 9 8 8 10 11 11 10 11 14 17 18 17 14 15 12 11 13 12 13
-0 0 0 1 0 1 1 2 1 2 2 3 3 3 4 7 8 8 6 8 9 8 6 6 6 8 7 7 6 7 7 8 9 12 14 15 13 11 10 9 10 9 10 12
-0 -1 -0 0 -0 0 1 1 2 2 2 2 3 3 4 4 3 6 5 6 10 9 8 7 6 8 7 9 8 6 6 6 7 8 10 10 7 8 9 7 7 8 9 9
-1 -1 -1 -1 -0 -1 -1 0 1 3 3 2 2 3 4 4 4 4 6 5 7 9 8 9 7 7 8 9 9 8 7 5 7 8 10 10 10 11 11 10 8 7 8 10
-1 -1 -1 -1 -1 -1 -1 -0 2 2 4 5 5 4 3 4 4 3 5 5 7 9 9 9 9 10 10 10 11 10 8 6 8 7 9 9 9 10 10 11 11 11 12 11
-1 -1 -1 -1 -1 -1 -1 1 0 -0 3 4 4 4 3 5 6 6 6 3 2 4 6 5 5 8 9 9 10 10 9 7 6 6 9 9 8 8 10 11 12 12 11 13
-1 -1 -1 -1 -1 -1 -0 1 1 -0 1 3 4 4 3 2 2 2 3 3 3 4 3 4 7 8 9 9 10 11 9 9 7 6 7 5 9 12 12 12 13 14 14 14
-1 -1 -2 -2 -1 -1 -2 -0 -1 -1 1 3 2 1 1 1 1 1 3 4 4 3 3 4 4 6 7 9 10 10 10 9 7 6 6 8 10 12 12 11 11 12 10 11
-1 -1 -1 -2 -2 -1 -2 -1 -0 -1 -0 2 0 1 0 1 2 3 3 2 2 2 3 3 3 5 7 9 10 11 11 10 7 7 6 6 10 12 11 8 8 6 8 9
-1 -2 -2 -2 -2 -2 -2 -1 -1 -1 0 2 3 3 2 4 4 4 4 1 4 3 2 3 4 5 8 7 8 8 5 5 5 5 5 6 11 9 8 7 6 8 8 9
-1 -1 -1 -2 -2 -2 -2 -1 -1 -1 0 1 3 3 3 4 4 3 4 2 3 3 2 2 1 3 4 5 8 8 9 6 6 7 6 6 6 9 6 7 8 8 8 8
-1 -1 -1 -2 -2 -2 -2 -1 -1 -1 -1 1 0 1 1 2 2 2 3 2 4 3 2 1 2 1 4 4 5 8 6 6 4 6 8 6 4 5 8 8 7 6 6 6
-2 -2 -2 -2 -2 -2 -2 -2 -1 -1 -1 0 1 1 2 1 1 1 2 3 4 3 2 2 3 2 4 3 5 3 6 3 2 4 9 8 5 4 6 7 6 6 5 5
-2 -2 -2 -2 -2 -2 -2 -2 -2 -2 -1 0 2 2 2 2 1 1 1 1 2 2 2 2 2 2 5 4 5 3 6 6 4 5 9 10 9 9 8 8 7 6 6 6
-2 -2 -2 -2 -2 -2 -2 -2 -2 -2 -2 -0 2 2 2 2 1 1 1 1 1 2 2 2 2 3 4 5 5 5 6 6 3 4 8 8 9 8 8 8 8 7 7 7
-2 -2 -2 -2 -2 -2 -3 -3 -3 -2 -2 -2 1 2 3 3 2 2 2 2 2 1 1 2 2 3 4 3 4 6 7 7 6 9 9 9 9 8 8 8 8 8 8 8
-2 -2 -2 -2 -2 -3 -3 -2 -1 -1 -2 -2 0 2 3 3 3 3 2 2 2 2 1 2 2 3 3 3 3 5 5 5 6 7 8 9 9 9 8 8 8 8 8 8
-2 -2 -2 -3 -2 -2 -3 -3 -2 -2 -1 -1 -0 2 3 3 2 2 2 2 2 2 2 2 2 3 3 2 5 4 4 6 7 7 8 8 8 8 8 8 8 8 8 8
-3 -3 -3 -2 -3 -3 -3 -3 -3 -2 -2 -1 0 1 1 3 3 2 1 1 1 1 2 2 2 3 1 4 5 6 6 7 7 8 8 8 8 8 8 8 8 7 7 6
-2 -3 -3 -3 -3 -3 -3 -3 -3 -3 -2 -2 -0 1 1 2 1 -2 -0 1 1 1 3 3 2 3 4 5 6 6 6 7 7 7 7 7 7 8 7 7 6 5 5 3
-2 -2 -3 -3 -3 -2 -2 -2 -2 -1 -1 -0 1 1 2 2 1 1 -1 1 1 1 4 3 4 3 4 5 6 6 7 7 7 7 7 7 6 5 5 5 4 3 2 2
-1 -2 -3 -3 -2 -1 -1 -1 0 0 1 3 3 2 3 2 2 1 1 1 2 1 2 3 4 6 7 6 6 6 6 6 7 6 6 5 4 3 2 2 2 1 2 2
-1 -1 -2 -1 -1 -2 -1 -1 0 1 2 2 1 -1 -1 -0 -0 -1 -0 -0 1 3 2 2 5 6 6 7 7 6 6 6 5 5 3 3 2 2 3 2 2 1 1 2
-1 -1 -2 -0 -1 -0 1 1 2 2 1 -1 -1 -0 -1 -1 -1 -0 1 1 2 1 2 4 5 6 6 6 5 5 4 4 3 3 3 3 3 2 2 1 1 -0 -1 -1
-0 -0 -1 0 1 1 -0 -1 -1 -1 -1 -1 -1 0 0 -0 0 1 1 2 2 3 3 2 4 4 4 4 4 3 2 3 2 2 2 2 2 1 -0 -1 -2 -2 -3 -3
-1 -0 -1 0 -0 -1 -2 -2 -1 -2 -2 -1 -1 -0 1 1 1 2 2 4 4 4 3 3 3 3 3 2 2 2 2 2 2 2 2 1 0 -1 -2 -2 -2 -3 -4 -4
-0 1 0 -0 0 0 -0 -0 0 0 -1 -0 0 1 1 3 2 2 5 4 4 4 3 3 3 2 2 2 2 2 2 2 1 1 0 -0 -1 -1 -2 -3 -3 -3 -4 -4

GFSNW_850_temp_177.txt.gz
Temp
0 1 1 1 1 1 1 1 0 2 2 2 0 3 4 8 8 8 8 8 8 7 7 8 10 11 9 7 8 10 7 9 8 12 14 14 13 11 11 9 10 9 9 9
1 1 1 1 0 0 1 1 1 2 2 2 2 2 4 6 7 7 5 5 7 8 6 6 6 6 7 7 6 6 6 7 7 11 12 10 8 7 7 6 7 8 8 8
0 -0 0 0 -1 -0 -1 -0 1 1 2 2 2 3 3 3 3 4 6 5 5 7 6 5 5 6 6 7 6 6 7 5 5 5 7 8 8 9 10 6 5 7 7 8
-0 -0 -0 -1 -0 -1 -1 -0 0 2 2 1 1 2 2 3 3 3 5 4 5 4 5 6 5 7 6 6 7 6 5 4 6 7 8 8 9 9 9 9 7 6 8 8
-0 -0 -0 -0 -1 -1 -1 -1 -0 2 2 3 2 1 2 3 3 3 4 4 5 6 4 4 4 7 7 7 7 5 6 5 6 5 7 8 8 8 8 9 9 9 9 9
-1 -1 -1 -1 -2 -1 -2 -1 -0 -1 -0 1 0 1 2 2 2 3 4 4 3 3 3 2 3 4 6 8 7 7 7 4 5 5 7 7 6 6 7 8 9 9 8 10
-2 -1 -1 -2 -1 -1 -1 0 -1 -0 -2 -0 1 2 1 1 2 1 1 1 3 4 3 2 3 2 4 5 7 7 6 5 4 5 6 3 7 10 10 9 10 10 11 9
-2 -2 -2 -1 -1 -1 -2 -1 -1 -1 -1 1 1 1 1 1 0 1 1 2 0 3 3 2 3 3 4 5 4 7 8 6 2 3 5 6 7 9 9 9 7 7 7 7
-1 -2 -2 -2 -2 -2 -2 -1 -1 -2 -1 -0 -1 -0 -0 0 0 0 -0 -0 0 3 2 2 2 4 5 7 7 9 8 7 4 2 4 4 7 9 9 8 5 6 6 6
-1 -2 -1 -2 -2 -2 -2 -2 -1 -2 -1 0 1 0 1 0 2 1 2 2 3 3 -0 0 2 3 7 6 6 6 5 4 4 4 4 4 7 8 7 6 5 6 7 7
-1 -1 -1 -1 -2 -2 -2 -1 -1 -2 -1 -0 -1 0 2 2 3 -1 2 1 1 1 -0 -0 0 1 1 2 5 6 6 5 4 4 4 5 6 7 6 4 6 6 7 6
-1 -1 -1 -1 -2 -2 -2 -2 -1 -1 -1 -0 0 1 1 1 1 2 3 2 2 1 -0 -1 -1 0 0 2 1 5 2 3 2 3 3 4 4 4 6 6 7 6 5 5
-1 -1 -1 -1 -2 -2 -2 -2 -1 -1 -1 -1 0 1 2 1 2 2 1 3 3 2 2 -0 -1 -0 0 -1 0 3 4 3 -0 2 4 3 2 5 5 6 7 6 6 5
-1 -1 -1 -1 -2 -2 -2 -2 -2 -2 -1 -2 1 2 2 2 2 1 1 1 1 1 1 -0 -3 -2 2 1 2 1 1 3 3 3 4 4 2 4 6 7 7 7 6 6
-2 -2 -1 -2 -2 -2 -2 -2 -2 -2 -2 -2 -0 1 2 2 2 1 1 1 1 1 -1 -2 -3 0 -0 0 2 1 3 3 0 2 2 0 1 6 8 8 8 8 7 7
-2 -2 -2 -2 -2 -2 -2 -3 -3 -2 -2 -2 -3 1 2 2 2 1 1 1 1 1 1 -2 1 2 1 -0 -1 3 4 5 6 4 5 4 4 6 8 8 8 8 8 8
-2 -2 -2 -2 -2 -2 -2 -2 -2 -2 -2 -2 -2 -4 2 3 3 2 2 2 2 1 1 -1 -0 1 1 -1 -0 2 3 4 5 5 5 5 7 8 8 8 8 8 8 8
-2 -2 -2 -2 -2 -3 -3 -2 -2 -2 -2 -2 -5 -3 -0 3 2 2 2 2 2 1 1 1 -1 0 0 -1 2 3 3 3 4 4 6 5 7 8 8 8 8 7 7 6
-3 -3 -3 -2 -3 -3 -3 -2 -3 -2 -3 -2 -2 -4 -5 3 2 2 1 1 -4 1 -2 -1 -0 -1 -1 0 2 4 5 5 5 6 6 7 7 7 8 7 6 6 5 5
-2 -3 -3 -3 -3 -3 -3 -3 -3 -3 -2 -2 -4 0 -3 1 1 -3 -2 0 -3 -2 -1 2 -1 -0 2 2 3 4 5 5 5 5 7 7 7 6 6 5 5 5 5 4
-3 -3 -3 -3 -3 -3 -3 -3 -4 -3 -4 -1 -1 -0 -2 1 -4 -4 -1 -5 -1 -0 0 0 0 0 1 2 2 3 4 5 5 7 7 6 5 5 5 4 4 3 3 3
-1 -2 -3 -3 -3 -2 -3 -5 -3 -3 -1 0 -1 0 1 1 1 -4 -2 -2 -2 -1 0 0 1 2 4 4 3 3 4 5 5 4 5 5 4 4 4 3 3 2 2 1
-1 -1 -2 -2 -2 -5 -4 -6 -3 -4 -1 0 -0 -1 -0 0 1 -2 -3 -3 -2 0 -0 1 1 3 4 5 5 4 4 5 5 4 4 4 3 2 3 2 2 2 1 0
-1 -1 -6 -5 -6 -3 -3 -2 -2 0 0 -0 -0 -1 -2 -2 -2 -2 -2 -1 0 -1 -1 1 -0 2 3 3 4 4 4 4 3 2 3 3 2 2 2 1 1 1 1 -0
-0 -0 -5 -4 -0 1 0 -1 -1 -1 -1 -2 -2 -1 -1 -1 -2 -1 -1 0 1 1 1 1 2 3 3 3 3 3 4 4 3 3 2 2 2 1 1 1 1 0 -3 -4
-1 -0 -2 -0 -2 -3 -1 -1 -2 -1 -2 -2 -2 -1 -1 -1 -0 0 0 2 2 0 -0 2 2 2 2 2 2 2 2 2 2 2 1 1 1 1 1 0 -1 -2 -4 -4
-1 -1 0 0 -0 -1 -0 -1 -0 -0 -2 -1 -1 -1 1 1 1 1 1 -1 0 2 2 2 2 2 2 2 2 2 2 2 1 1 1 1 1 -0 -1 -3 -3 -3 -4 -4

GFSNW_850_temp_183.txt.gz
Temp
-0 -0 -0 -0 -0 -0 -0 -0 1 1 1 1 0 2 2 3 4 6 7 7 7 7 8 7 8 9 9 7 7 10 8 7 8 11 10 10 9 9 9 10 10 9 9 9
-0 -0 -0 -1 -0 -0 -1 -1 -0 1 1 2 2 2 2 2 3 4 4 5 6 8 8 7 8 9 8 7 7 7 7 7 9 9 7 8 7 7 6 5 5 8 9 8
-1 -1 -0 -0 -1 -0 -1 -1 0 -0 0 0 2 2 2 3 2 3 3 2 2 4 6 7 7 9 6 5 6 5 6 5 6 9 7 5 6 7 6 6 6 6 7 7
-1 -1 -1 -0 -1 -1 -1 -1 -1 0 1 0 1 2 1 2 2 2 3 3 3 3 4 5 6 8 6 5 5 5 5 4 4 5 4 4 4 7 6 6 6 5 6 8
-1 -1 -1 -1 -0 -1 -1 -1 -1 -1 -0 -0 1 -0 -0 1 1 1 2 2 2 1 2 4 4 3 5 6 5 5 4 4 4 4 6 4 4 6 6 7 7 8 8 7
-2 -1 -1 -1 -1 -1 -1 -1 -1 -1 -1 -1 -1 -2 -1 1 0 1 2 0 0 0 2 2 1 1 1 2 3 4 4 4 4 5 6 6 5 5 6 7 8 7 6 7
-2 -1 -1 -1 -1 -2 -2 -1 -1 -2 -2 -3 -2 -0 0 -1 -0 -0 1 1 0 2 1 2 2 1 2 2 2 3 4 4 4 4 5 4 6 8 7 7 7 8 8 8
-2 -2 -1 -1 -2 -2 -1 -2 -2 -2 -4 -2 -2 -1 -1 -1 -0 -0 0 -1 0 0 0 2 2 3 3 3 3 3 3 4 4 3 4 5 7 7 7 6 7 7 6 7
-2 -2 -1 -2 -1 -2 -2 -2 -1 -1 -3 -3 -2 -1 -1 -0 -0 -0 -1 1 0 -0 0 2 2 3 3 4 4 4 3 3 4 3 4 4 6 6 8 7 4 5 6 6
-2 -2 -1 -2 -1 -1 -2 -2 -2 -2 -3 -1 -1 -1 -1 -1 -1 -1 0 1 1 1 -0 1 2 2 2 3 4 4 3 4 4 4 3 4 5 5 6 5 5 4 5 5
-2 -2 -2 -2 -1 -2 -2 -2 -2 -2 -2 -1 -1 -0 -1 -1 -1 -3 -0 -1 0 -1 -2 -1 0 -0 0 1 2 3 4 4 4 4 3 4 5 5 5 4 5 5 5 5
-2 -2 -2 -2 -1 -2 -2 -2 -2 -2 -2 -1 -1 -1 -0 -0 -0 -0 1 0 1 0 -3 -3 -1 0 0 0 -1 3 3 2 2 3 2 2 4 4 5 4 4 5 5 5
-2 -2 -2 -2 -2 -2 -2 -2 -2 -2 -2 -2 -1 1 2 1 1 0 0 1 1 1 1 -2 -2 -0 -1 -1 1 1 3 3 2 2 2 3 3 3 3 3 3 4 5 6
-2 -2 -2 -2 -2 -2 -2 -2 -2 -2 -2 -4 -1 1 1 2 1 1 1 1 1 1 1 -3 -4 -2 -0 -1 -1 -0 0 2 2 2 3 3 2 2 2 3 4 5 5 5
-2 -2 -1 -2 -2 -2 -2 -2 -2 -2 -1 -2 -2 0 2 2 2 1 1 1 1 0 -3 -6 -4 -3 -2 -2 -2 -1 1 1 -1 -1 2 2 3 3 2 2 4 6 5 5
-2 -2 -1 -2 -2 -2 -2 -3 -2 -2 -2 -2 -4 0 1 2 2 2 1 1 0 0 -1 -4 -2 0 -0 -3 -2 -1 3 3 3 1 3 3 3 3 4 3 3 4 5 5
-2 -2 -2 -2 -2 -2 -2 -2 -2 -3 -3 -2 -5 -4 1 1 1 1 1 1 1 0 -1 -4 -2 -1 -1 -4 -1 0 2 2 3 2 2 2 3 3 5 5 4 6 6 7
-2 -2 -2 -3 -3 -3 -2 -2 -2 -3 -3 -3 -6 -4 -2 0 1 -0 0 0 -0 -1 -0 -2 -4 -2 -3 -2 -0 1 1 1 1 2 2 2 3 3 3 5 4 4 5 6
-3 -3 -3 -3 -3 -3 -3 -3 -3 -3 -3 -3 -5 -4 -4 0 -1 -1 -1 -1 -6 -1 -4 -3 -2 -2 -1 -1 -1 0 1 1 2 3 2 3 3 4 4 5 4 4 5 5
-3 -3 -3 -4 -4 -3 -3 -3 -3 -3 -3 -3 -6 -3 -5 -1 -3 -6 -6 -4 -5 -4 -3 -2 -4 -1 1 1 1 1 1 2 3 2 2 3 3 4 5 5 4 4 4 4
-2 -3 -4 -4 -3 -3 -3 -5 -5 -5 -5 -3 -3 -3 -6 -1 -6 -6 -3 -6 -5 -3 -1 -1 -0 0 1 1 1 1 1 1 2 2 3 3 4 3 4 3 3 4 3 3
-2 -2 -4 -4 -4 -4 -5 -9 -5 -5 -3 -3 -3 -2 -2 -1 -1 -5 -5 -3 -3 -2 -2 -2 -1 0 -0 -0 -0 0 1 1 1 2 2 3 3 3 3 3 3 3 2 3
-2 -2 -3 -4 -4 -6 -7 -9 -5 -7 -4 -1 -1 -3 -1 -2 -3 -3 -3 -3 -3 -1 -2 -2 -1 -0 -1 -1 -2 0 2 1 1 1 2 -0 1 2 3 2 2 3 2 2
-1 -2 -8 -8 -10 -6 -5 -3 -3 -1 -1 -1 -1 -2 -3 -2 -3 -3 -3 -2 -2 -1 -0 0 -1 -1 -2 -2 -0 1 1 1 1 1 0 -0 -0 1 2 2 2 2 2 0
-1 -2 -7 -7 -3 -2 -2 -1 -2 -2 -2 -3 -3 -2 -2 -3 -2 -2 -2 -2 -0 0 -1 -3 -1 -2 -2 -1 -0 1 2 2 2 1 1 1 -0 -0 1 1 1 1 -1 -2
-2 -2 -4 -4 -6 -6 -2 -1 -2 -1 -2 -3 -2 -2 -2 -3 -3 -2 -2 0 1 -1 -2 -1 -1 -0 -0 0 0 0 1 2 2 1 0 -1 0 1 -0 -0 -1 -1 -3 -4
-2 -4 -2 -2 -2 -2 -1 -1 -1 -2 -2 -2 -2 -1 -1 -1 -1 0 -0 -1 -1 -2 -2 -2 -1 -1 -1 -0 -0 -0 0 -0 -0 0 1 1 -0 -1 -2 -3 -3 -4 -4 -4

GFSNW_850_temp_189.txt.gz
Temp
-1 -1 -0 -0 -0 -0 -1 -0 -0 1 2 2 0 2 2 3 3 3 2 2 3 4 5 5 5 6 6 4 4 7 7 9 10 12 10 11 16 14 13 12 11 11 13 14
-1 -1 -1 -1 -0 -1 -1 -1 -1 1 1 2 2 2 2 2 2 2 2 3 2 2 3 3 4 4 6 5 4 4 4 5 7 8 8 8 9 11 13 9 8 10 11 11
-1 -1 -1 -1 -1 -1 -1 -1 -0 -0 0 1 2 2 2 2 1 2 2 2 1 2 3 2 3 4 5 5 5 6 6 4 6 7 8 5 6 5 6 8 9 10 9 7
-1 -1 -1 -1 -1 -1 -1 -2 -1 -0 1 0 1 1 1 2 2 2 2 2 2 1 1 1 2 4 4 5 6 5 5 6 5 6 8 7 7 7 7 6 7 8 7 8
-1 -1 -1 -1 -1 -1 -1 -2 -1 -1 -0 0 1 1 1 1 1 1 1 1 3 1 1 2 2 3 3 3 4 4 4 4 4 5 6 7 7 7 7 7 6 6 6 8
-2 -1 -1 -1 -1 -2 -2 -2 -1 -1 -1 0 1 1 0 0 0 1 2 1 0 -1 1 1 2 2 2 3 2 2 3 4 5 5 6 6 6 6 6 6 6 8 7 10
-2 -2 -2 -1 -1 -2 -2 -2 -1 -1 -1 -1 0 -0 -0 -0 1 -0 0 1 0 1 0 0 0 1 1 2 2 3 2 3 4 5 6 6 5 7 7 8 8 8 9 9
-2 -2 -2 -2 -2 -2 -2 -2 -1 -1 -1 -1 -1 -1 -1 -1 -1 -1 0 0 1 1 -0 0 0 1 2 3 3 4 2 2 4 5 6 6 6 7 7 7 8 8 8 8
-2 -2 -2 -2 -2 -2 -3 -2 -2 -2 -2 -1 -0 -2 -3 -1 -1 -1 -1 -0 -0 -0 -1 0 1 2 3 5 5 4 3 2 3 4 5 5 5 6 7 8 8 7 8 7
-3 -2 -2 -2 -2 -2 -2 -2 -2 -2 -3 -2 -1 -1 -1 -2 -1 -1 -0 -0 -0 -1 0 1 1 2 1 2 3 3 3 3 3 4 4 5 3 3 5 7 6 5 6 6
-2 -2 -2 -2 -2 -2 -2 -2 -2 -2 -2 -1 -1 -1 -1 -2 -2 -1 -0 -1 -1 -0 -0 -0 0 1 1 1 1 1 2 2 4 4 4 4 1 4 5 3 4 4 5 4
-2 -2 -2 -2 -2 -2 -2 -2 -2 -2 -1 -1 -1 -1 -0 -0 -0 -0 -1 -0 -0 -0 -0 -1 -1 0 1 1 1 3 2 1 1 1 2 1 -1 0 1 1 2 3 4 4
-2 -2 -2 -2 -2 -2 -2 -2 -2 -2 -2 -2 -1 -0 0 0 0 -0 -0 -1 -0 -0 -1 -1 -0 -0 1 0 1 1 3 2 2 2 1 1 -0 -0 0 1 1 2 3 4
-2 -2 -2 -2 -2 -1 -2 -2 -2 -2 -2 -3 -1 -0 0 0 1 0 -0 0 -0 -0 -1 -1 -1 -0 0 1 1 1 2 2 2 3 4 3 2 2 2 3 2 2 3 4
-2 -2 -2 -2 -2 -2 -2 -2 -2 -2 -1 -3 -2 0 -0 0 1 1 0 -0 -1 -1 -1 -2 -1 -1 -1 -1 -1 -0 1 2 1 2 2 2 2 2 3 3 2 2 3 3
-3 -2 -2 -2 -2 -2 -2 -2 -3 -2 -2 -1 -2 -0 0 0 0 0 1 0 -1 -1 -2 -1 -2 -1 -0 -0 -0 2 1 2 2 3 2 2 2 2 3 3 3 3 2 3
-2 -2 -2 -2 -2 -2 -1 -3 -3 -3 -2 -2 -3 -2 -0 -0 -0 -0 -1 -1 -1 -1 -2 -2 -1 -1 -1 -1 -0 3 1 1 2 2 2 1 1 2 2 2 3 3 2 3
-2 -2 -2 -2 -2 -2 -3 -3 -3 -3 -2 -3 -4 -2 -1 -1 -1 -1 -2 -2 -2 -2 -1 -3 -2 -2 -1 -1 2 1 1 1 0 0 1 1 1 0 0 1 2 2 3 3
-3 -2 -2 -2 -2 -3 -3 -3 -3 -3 -3 -4 -4 -2 -2 -1 -2 -2 -2 -3 -2 -3 -2 -2 -2 -1 -2 0 1 1 0 0 1 1 1 0 0 0 1 1 2 2 2 3
-2 -2 -2 -4 -3 -3 -3 -3 -3 -3 -3 -3 -3 -5 -2 -2 -4 -3 -4 -6 -2 -2 -1 -3 -2 -1 1 1 1 1 -0 -0 -1 -0 -0 -0 0 1 2 2 3 3 3 3
-2 -2 -4 -3 -3 -3 -3 -5 -5 -5 -3 -4 -4 -4 -3 -2 -2 -2 -4 -3 -3 -2 -1 -1 -0 -0 -1 -2 -2 -2 -2 -2 -1 -0 0 1 1 1 2 2 2 3 4 2
-2 -3 -3 -4 -3 -4 -5 -8 -5 -4 -2 -3 -3 -3 -3 -2 -3 -3 -4 -3 -2 -2 -1 -1 -1 -1 -2 -3 -3 -3 -2 -2 -2 -1 -0 0 1 2 1 0 0 1 2 1
-3 -3 -3 -5 -6 -8 -6 -7 -4 -5 -3 -3 -3 -2 -2 -3 -3 -3 -3 -2 -2 -1 -2 -1 -0 -1 -2 -3 -3 -2 -1 -1 -1 -1 -0 0 1 -0 -1 -1 -1 1 -1 0
-2 -3 -7 -6 -7 -6 -5 -3 -2 -2 -2 -2 -3 -3 -3 -3 -3 -3 -2 -1 -2 -2 -1 -1 -1 -3 -3 -3 -3 -3 -2 -1 -0 -0 -0 -1 -1 -1 -1 -0 -2 -2 -0 -0
-2 -3 -7 -6 -5 -4 -4 -3 -3 -1 -2 -2 -3 -3 -3 -2 -3 -2 -2 -2 -1 -1 -1 -2 -3 -4 -3 -3 -3 -2 -1 -1 -1 -1 -2 -2 -2 -2 -2 -2 -1 -0 -1 -1
-2 -3 -5 -5 -6 -6 -4 -3 -3 -2 -2 -2 -3 -2 -2 -2 -2 -2 -2 -1 -1 -1 -1 -3 -4 -4 -4 -4 -3 -3 -3 -2 -2 -2 -1 -2 -2 -2 -2 -4 -4 -3 -3 -4
-3 -5 -3 -4 -4 -4 -2 -1 -1 -2 -3 -4 -2 -3 -2 -2 -1 -1 -1 -2 -1 -2 -3 -4 -4 -4 -4 -4 -4 -4 -3 -3 -2 -2 -2 -2 -2 -3 -3 -3 -4 -4 -4 -4